Olean, NY

2:27 PM EST on January 21, 2018 (GMT -0500)
Cattaraugus County-Olean

Weather History for KOLE - October, 2012

Change the Weather History Date:

Tuesday, October 23, 2012

  Actual Average (KBFD) Record (KBFD)
Temperature  
Mean Temperature 52 °F -  
Max Temperature 55 °F 55 °F 75 °F (1975)
Min Temperature 50 °F 35 °F 19 °F (1969)
Degree Days  
Heating Degree Days 12    
Growing Degree Days 2 (Base 50)    
Moisture  
Dew Point 51 °F    
Average Humidity 94    
Maximum Humidity 100    
Minimum Humidity 67    
Precipitation  
Precipitation 0.00 in - - ()
Sea Level Pressure  
Sea Level Pressure 30.06 in    
Wind  
Wind Speed 2 mph ()    
Max Wind Speed 8 mph    
Max Gust Speed -    
Visibility 5.4 miles    
Events Fog , Rain , Thunderstorm    
Averages and records for this station are not official NWS values.
T = Trace of Precipitation, MM = Missing Value Source: Averaged Metar Reports

Daily Weather History Graph

Daily Weather History Graph

Search for Another Location

Airport or City:

Trip Planner

Search our weather history database for the weather conditions in past years. The results will help you decide how hot, cold, wet, or windy it might be!

Date:

Astronomy

Oct. 23, 2012 Rise Set
Actual Time 7:36 AM EDT 6:18 PM EDT
Civil Twilight 7:07 AM EDT 6:47 PM EDT
Nautical Twilight 6:34 AM EDT 7:19 PM EDT
Astronomical Twilight 6:02 AM EDT 7:52 PM EDT
Moon 3:07 PM EDT (10/23) 1:19 AM EDT (10/23)
Length of Visible Light 11h 39m
Length of Day
10h 42m
Waxing Gibbous, 66% of the Moon is Illuminated
Oct 23
Waxing Gibbous
Oct 29
Full
Nov 6
Last Quarter
Nov 13
New
Nov 20
First Quarter

Hourly Weather History & Observations

Time (EDT) Temp. Dew Point Humidity Pressure Visibility Wind Dir Wind Speed Gust Speed Precip Events Conditions
12:15 AM 53.6 °F 42.8 °F 67% 30.09 in 10.0 mi SSW 3.5 mph - N/A   Overcast
12:35 AM 53.6 °F 42.8 °F 67% 30.08 in 10.0 mi Calm Calm - N/A   Overcast
1:15 AM 55.4 °F 44.6 °F 67% 30.08 in 10.0 mi SSW 3.5 mph - N/A   Overcast
1:35 AM 55.4 °F 44.6 °F 67% 30.08 in 10.0 mi SSW 4.6 mph - N/A   Overcast
1:55 AM 55.4 °F 44.6 °F 67% 30.08 in 10.0 mi SSW 4.6 mph - N/A Thunderstorm Overcast
2:15 AM 55.4 °F 44.6 °F 67% 30.08 in 10.0 mi South 3.5 mph - N/A Rain Rain
2:35 AM 53.6 °F 44.6 °F 72% 30.08 in 10.0 mi Calm Calm - N/A Thunderstorm Overcast
2:55 AM 53.6 °F 44.6 °F 72% 30.08 in 7.0 mi Calm Calm - N/A Rain Light Rain
3:15 AM 51.8 °F 46.4 °F 82% 30.06 in 7.0 mi Calm Calm - N/A Rain Light Rain
3:55 AM 50.0 °F 48.2 °F 94% 30.07 in 7.0 mi Calm Calm - N/A Rain , Thunderstorm Heavy Thunderstorms and Rain
4:15 AM 51.8 °F 50.0 °F 94% 30.08 in 5.0 mi Calm Calm - N/A Rain , Thunderstorm Rain
4:35 AM 51.8 °F 50.0 °F 94% 30.07 in 5.0 mi Calm Calm - N/A Rain Rain
4:55 AM 51.8 °F 51.8 °F 100% 30.08 in 7.0 mi Calm Calm - N/A   Overcast
5:15 AM 51.8 °F 51.8 °F 100% 30.07 in 10.0 mi Calm Calm - N/A   Overcast
5:55 AM 51.8 °F 51.8 °F 100% 30.07 in 10.0 mi South 3.5 mph - N/A   Overcast
6:15 AM 51.8 °F 51.8 °F 100% 30.07 in 5.0 mi Calm Calm - N/A   Overcast
6:35 AM 51.8 °F 51.8 °F 100% 30.07 in 7.0 mi South 3.5 mph - N/A   Overcast
6:55 AM 51.8 °F 51.8 °F 100% 30.07 in 7.0 mi South 3.5 mph - N/A   Overcast
7:35 AM 50.0 °F 50.0 °F 100% 30.07 in 7.0 mi South 3.5 mph - N/A Rain Light Rain
8:15 AM 50.0 °F 50.0 °F 100% 30.08 in 7.0 mi SSW 5.8 mph - N/A   Drizzle
8:35 AM 51.8 °F 50.0 °F 94% 30.08 in 10.0 mi SSW 4.6 mph - N/A Rain Light Rain
8:55 AM 51.8 °F 50.0 °F 94% 30.08 in 10.0 mi SSW 6.9 mph - N/A Rain Light Rain
9:15 AM 51.8 °F 50.0 °F 94% 30.08 in 10.0 mi SSW 8.1 mph - N/A   Mostly Cloudy
9:35 AM 51.8 °F 50.0 °F 94% 30.08 in 10.0 mi SSW 6.9 mph - N/A Rain Light Rain
10:15 AM 53.6 °F 50.0 °F 88% 30.07 in 10.0 mi South 4.6 mph - N/A   Overcast
10:35 AM 53.6 °F 51.8 °F 94% 30.06 in 10.0 mi South 5.8 mph - N/A   Overcast
10:55 AM 53.6 °F 51.8 °F 94% 30.06 in 10.0 mi South 5.8 mph - N/A   Overcast
11:15 AM 53.6 °F 51.8 °F 94% 30.06 in 10.0 mi SSW 4.6 mph - N/A   Overcast
11:55 AM 53.6 °F 51.8 °F 94% 30.07 in 10.0 mi South 4.6 mph - N/A   Overcast
12:15 PM 53.6 °F 51.8 °F 94% 30.06 in 10.0 mi South 4.6 mph - N/A   Overcast
12:35 PM 55.4 °F 51.8 °F 88% 30.05 in 10.0 mi South 4.6 mph - N/A   Overcast
12:55 PM 53.6 °F 51.8 °F 94% 30.04 in 10.0 mi SSE 3.5 mph - N/A Rain Light Rain
1:15 PM 53.6 °F 51.8 °F 94% 30.04 in 5.0 mi Calm Calm - N/A Rain Light Rain
1:35 PM 53.6 °F 53.6 °F 100% 30.03 in 2.5 mi Calm Calm - N/A Rain Rain
1:55 PM 53.6 °F 53.6 °F 100% 30.03 in 2.0 mi Calm Calm - N/A Rain Heavy Rain
2:15 PM 53.6 °F 53.6 °F 100% 30.03 in 5.0 mi Calm Calm - N/A Rain Rain
2:35 PM 53.6 °F 53.6 °F 100% 30.03 in 1.8 mi Calm Calm - N/A Rain Heavy Rain
2:55 PM 53.6 °F 53.6 °F 100% 30.03 in 2.5 mi SW 5.8 mph - N/A Rain Heavy Rain
3:15 PM 53.6 °F 53.6 °F 100% 30.04 in 4.0 mi WSW 3.5 mph - N/A Rain Light Rain
3:35 PM 53.6 °F 53.6 °F 100% 30.04 in 3.0 mi Calm Calm - N/A Rain Heavy Rain
3:55 PM 53.6 °F 53.6 °F 100% 30.04 in 2.5 mi Calm Calm - N/A Rain Rain
4:15 PM 53.6 °F 53.6 °F 100% 30.04 in 1.8 mi Calm Calm - N/A Rain Rain
4:35 PM 53.6 °F 53.6 °F 100% 30.04 in 2.5 mi Calm Calm - N/A Rain Rain
4:55 PM 53.6 °F 53.6 °F 100% 30.04 in 2.0 mi Calm Calm - N/A   Drizzle
5:15 PM 53.6 °F 53.6 °F 100% 30.04 in 4.0 mi Calm Calm - N/A   Overcast
5:35 PM 53.6 °F 53.6 °F 100% 30.04 in 1.8 mi Calm Calm - N/A   Overcast
5:55 PM 53.6 °F 53.6 °F 100% 30.04 in 1.2 mi Calm Calm - N/A   Overcast
6:15 PM 53.6 °F 53.6 °F 100% 30.05 in 0.5 mi Calm Calm - N/A Rain Light Rain
6:35 PM 53.6 °F 53.6 °F 100% 30.05 in 0.2 mi Calm Calm - N/A Fog Fog
6:55 PM 53.6 °F 53.6 °F 100% 30.06 in 0.5 mi Calm Calm - N/A Fog Fog
7:15 PM 53.6 °F 53.6 °F 100% 30.06 in 0.2 mi SSW 3.5 mph - N/A Fog Fog
7:35 PM 53.6 °F 53.6 °F 100% 30.06 in 0.2 mi SSW 3.5 mph - N/A Fog Fog
7:55 PM 53.6 °F 53.6 °F 100% 30.06 in 0.2 mi Calm Calm - N/A Fog Fog
8:15 PM 53.6 °F 53.6 °F 100% 30.06 in 0.2 mi Calm Calm - N/A Fog Fog
8:35 PM 53.6 °F 53.6 °F 100% 30.07 in 0.8 mi Calm Calm - N/A   Overcast
8:55 PM 53.6 °F 53.6 °F 100% 30.07 in 1.5 mi Calm Calm - N/A   Light Drizzle
9:15 PM 53.6 °F 53.6 °F 100% 30.07 in 1.2 mi Calm Calm - N/A   Overcast
9:35 PM 53.6 °F 53.6 °F 100% 30.08 in 5.0 mi Calm Calm - N/A   Overcast
9:55 PM 53.6 °F 53.6 °F 100% 30.07 in 3.0 mi Calm Calm - N/A   Overcast
10:15 PM 53.6 °F 53.6 °F 100% 30.08 in 4.0 mi Calm Calm - N/A   Overcast
10:35 PM 53.6 °F 53.6 °F 100% 30.07 in 0.8 mi Calm Calm - N/A   Overcast
10:55 PM 53.6 °F 53.6 °F 100% 30.07 in 1.0 mi Calm Calm - N/A   Overcast
11:15 PM 53.6 °F 53.6 °F 100% 30.08 in 4.0 mi Calm Calm - N/A   Overcast
11:35 PM 53.6 °F 53.6 °F 100% 30.08 in 1.5 mi Calm Calm - N/A   Overcast
11:55 PM 53.6 °F 53.6 °F 100% 30.08 in 1.8 mi Calm Calm - N/A   Overcast